Tracking 29892 objects as of 21-Nov-2024
HD Live streaming from Space Station
objects crossing your sky now

STARLINK-5047

Track STARLINK-5047 now!
10-day predictions
STARLINK-5047 is classified as:


NORAD ID: 55409
Int'l Code: 2023-014U
Perigee: 577.7 km
Apogee: 580.6 km
Inclination: 70.0 °
Period: 96.1 minutes
Semi major axis: 6950 km
RCS: Unknown
Launch date: January 31, 2023
Source: United States (US)
Launch site: AIR FORCE WESTERN TEST RANGE (AFWTR)
Your satellite tracking list
Your tracking list is empty




NASA's NSSDC Master Catalog

Two Line Element Set (TLE):
1 55409U 23014U   24325.57175185 -.00000518  00000-0 -35646-4 0  9992
2 55409  70.0013 180.0179 0002118 253.5858 106.5069 14.98335593100097
Source of the keplerian elements: AFSPC